,,,PA_Meas_PMT16A,,PR_Meas_QMR101_102,,RH_Meas_QMH101,,SR_Meas_QMS101,,TA_Meas_QMH101,,GenWind,,GenWind,
date,time,status,PA,status,PR,status,RH,status,SR,status,TA,status,DirAvg,status,SpdAvg,
2009-02-23, 00:00:04,VALID,998.073,VALID,0,VALID,94.8438,VALID,0,VALID,23.742,VALID,71,VALID,0.662109,
2009-02-23, 00:01:04,VALID,998.067,VALID,0,VALID,94.8285,VALID,0,VALID,23.7225,VALID,82,VALID,0.597266,
2009-02-23, 00:02:04,VALID,998.06,VALID,0,VALID,94.8514,VALID,0,VALID,23.7225,VALID,84,VALID,0.731641,
2009-02-23, 00:03:04,VALID,998.064,VALID,0,VALID,94.8438,VALID,0,VALID,23.7225,VALID,87,VALID,0.662109,
2009-02-23, 00:04:04,VALID,998.07,VALID,0,VALID,94.8362,VALID,0,VALID,23.7225,VALID,88,VALID,0.638672,
2009-02-23, 00:05:04,VALID,998.102,VALID,0,VALID,94.8285,VALID,0,VALID,23.7243,VALID,89,VALID,0.508984,
2009-02-23, 00:06:04,VALID,998.11,VALID,0,VALID,94.8667,VALID,0,VALID,23.6835,VALID,89,VALID,0.496094,
2009-02-23, 00:07:04,VALID,998.081,VALID,0,VALID,94.8514,VALID,0,VALID,23.7048,VALID,89,VALID,0.453906,
2009-02-23, 00:08:04,VALID,998.106,VALID,0,VALID,94.8514,VALID,0,VALID,23.6853,VALID,89,VALID,0.370313,
2009-02-23, 00:09:04,VALID,998.065,VALID,0,VALID,94.8362,VALID,0,VALID,23.664,VALID,89,VALID,0.0261719,
2009-02-23, 00:10:04,VALID,998.02,VALID,0,VALID,94.798,VALID,0,VALID,23.6658,VALID,89,VALID,0,
2009-02-23, 00:11:04,VALID,998.024,VALID,0,VALID,94.798,VALID,0,VALID,23.625,VALID,89,VALID,0.0015625,
2009-02-23, 00:12:04,VALID,998.018,VALID,0,VALID,94.7751,VALID,0,VALID,23.6054,VALID,89,VALID,0,
2009-02-23, 00:13:04,VALID,997.993,VALID,0,VALID,94.798,VALID,0,VALID,23.6072,VALID,89,VALID,0,
2009-02-23, 00:14:04,VALID,997.968,VALID,0,VALID,94.798,VALID,0,VALID,23.5877,VALID,89,VALID,0,
2009-02-23, 00:15:04,VALID,997.95,VALID,0,VALID,94.7751,VALID,0,VALID,23.5469,VALID,89,VALID,0,
2009-02-23, 00:16:04,VALID,997.933,VALID,0,VALID,94.7828,VALID,0,VALID,23.5274,VALID,89,VALID,0,
2009-02-23, 00:17:04,VALID,997.909,VALID,0,VALID,94.7446,VALID,0,VALID,23.4884,VALID,89,VALID,0,
2009-02-23, 00:18:04,VALID,997.869,VALID,0,VALID,94.7217,VALID,0,VALID,23.4688,VALID,89,VALID,0,
2009-02-23, 00:19:04,VALID,997.842,VALID,0,VALID,94.8285,VALID,0,VALID,23.4688,VALID,89,VALID,0,
2009-02-23, 00:20:04,VALID,997.817,VALID,0,VALID,94.9277,VALID,0,VALID,23.4688,VALID,89,VALID,0,
2009-02-23, 00:21:04,VALID,997.792,VALID,0,VALID,94.9811,VALID,0,VALID,23.5097,VALID,89,VALID,0,
2009-02-23, 00:22:04,VALID,997.756,VALID,0,VALID,95.0117,VALID,0,VALID,23.4884,VALID,89,VALID,0.2,
2009-02-23, 00:23:04,VALID,997.712,VALID,0,VALID,95.0269,VALID,0,VALID,23.5079,VALID,89,VALID,0.0015625,
2009-02-23, 00:24:04,VALID,997.693,VALID,0,VALID,95.0422,VALID,0,VALID,23.5079,VALID,89,VALID,0,
2009-02-23, 00:25:04,VALID,997.671,VALID,0,VALID,95.0345,VALID,0,VALID,23.5487,VALID,89,VALID,0,
2009-02-23, 00:26:04,VALID,997.648,VALID,0,VALID,95.0574,VALID,0,VALID,23.5292,VALID,89,VALID,0,
2009-02-23, 00:27:04,VALID,997.615,VALID,0,VALID,95.0269,VALID,0,VALID,23.5079,VALID,89,VALID,0,
2009-02-23, 00:28:04,VALID,997.608,VALID,0,VALID,95.0345,VALID,0,VALID,23.5292,VALID,89,VALID,0,
2009-02-23, 00:29:04,VALID,997.609,VALID,0,VALID,95.0574,VALID,0,VALID,23.5079,VALID,89,VALID,0,
2009-02-23, 00:30:04,VALID,997.628,VALID,0,VALID,95.0345,VALID,0,VALID,23.5079,VALID,89,VALID,0,
2009-02-23, 00:31:04,VALID,997.624,VALID,0,VALID,95.0498,VALID,0,VALID,23.4688,VALID,76,VALID,0.490234,
2009-02-23, 00:32:04,VALID,997.615,VALID,0,VALID,95.0803,VALID,0,VALID,23.4884,VALID,42,VALID,0.65625,
2009-02-23, 00:33:04,VALID,997.582,VALID,0,VALID,95.1032,VALID,0,VALID,23.5079,VALID,25,VALID,0.742578,
2009-02-23, 00:34:04,VALID,997.575,VALID,0,VALID,95.0498,VALID,0,VALID,23.4901,VALID,23,VALID,0.696094,
2009-02-23, 00:35:04,VALID,997.523,VALID,0,VALID,94.9506,VALID,0,VALID,23.4298,VALID,23,VALID,0.675,
2009-02-23, 00:36:04,VALID,997.541,VALID,0,VALID,94.9888,VALID,0,VALID,23.3908,VALID,23,VALID,0.594922,
2009-02-23, 00:37:04,VALID,997.486,VALID,0,VALID,95.0422,VALID,0,VALID,23.3713,VALID,23,VALID,0.479297,
2009-02-23, 00:38:04,VALID,997.456,VALID,0,VALID,95.0956,VALID,0,VALID,23.3731,VALID,23,VALID,0.339844,
2009-02-23, 00:39:04,VALID,997.447,VALID,0,VALID,95.1414,VALID,0,VALID,23.3926,VALID,23,VALID,0.571484,
2009-02-23, 00:40:04,VALID,997.407,VALID,0,VALID,95.0727,VALID,0,VALID,23.3323,VALID,23,VALID,0.697656,
2009-02-23, 00:41:04,VALID,997.386,VALID,0,VALID,95.0117,VALID,0,VALID,23.3127,VALID,23,VALID,0.660156,
2009-02-23, 00:42:04,VALID,997.378,VALID,0,VALID,95.1032,VALID,0,VALID,23.2932,VALID,23,VALID,0.733203,
2009-02-23, 00:43:04,VALID,997.325,VALID,0,VALID,94.9964,VALID,0,VALID,23.256,VALID,23,VALID,0.736328,
2009-02-23, 00:44:04,VALID,997.35,VALID,0,VALID,95.0803,VALID,0,VALID,23.2152,VALID,23,VALID,0.624609,
2009-02-23, 00:45:04,VALID,997.306,VALID,0,VALID,95.1261,VALID,0,VALID,23.2152,VALID,23,VALID,0.554688,
2009-02-23, 00:46:04,VALID,997.265,VALID,0,VALID,95.149,VALID,0,VALID,23.1957,VALID,23,VALID,0.689062,
2009-02-23, 00:47:04,VALID,997.296,VALID,0,VALID,95.1414,VALID,0,VALID,23.1762,VALID,23,VALID,0.664453,
2009-02-23, 00:48:04,VALID,997.279,VALID,0,VALID,95.1261,VALID,0,VALID,23.1974,VALID,23,VALID,0.651563,
2009-02-23, 00:49:04,VALID,997.241,VALID,0,VALID,95.1719,VALID,0,VALID,23.1566,VALID,23,VALID,0.690234,
2009-02-23, 00:50:04,VALID,997.233,VALID,0,VALID,95.1795,VALID,0,VALID,23.1584,VALID,23,VALID,0.608203,
2009-02-23, 00:51:04,VALID,997.222,VALID,0,VALID,95.2253,VALID,0,VALID,23.1566,VALID,23,VALID,0.632813,
2009-02-23, 00:52:04,VALID,997.219,VALID,0,VALID,95.2405,VALID,0,VALID,23.1371,VALID,23,VALID,0.559766,
2009-02-23, 00:53:04,VALID,997.181,VALID,0,VALID,95.2482,VALID,0,VALID,23.1354,VALID,23,VALID,0.450391,
2009-02-23, 00:54:04,VALID,997.168,VALID,0,VALID,95.3474,VALID,0,VALID,23.1566,VALID,23,VALID,0.301562,
2009-02-23, 00:55:04,VALID,997.142,VALID,0,VALID,95.355,VALID,0,VALID,23.1549,VALID,23,VALID,0.104687,
2009-02-23, 00:56:04,VALID,997.115,VALID,0,VALID,95.3703,VALID,0,VALID,23.1744,VALID,23,VALID,0,
2009-02-23, 00:57:04,VALID,997.089,VALID,0,VALID,95.3474,VALID,0,VALID,23.1744,VALID,23,VALID,0,
2009-02-23, 00:58:04,VALID,997.047,VALID,0,VALID,95.3855,VALID,0,VALID,23.1744,VALID,23,VALID,0,
2009-02-23, 00:59:04,VALID,997.036,VALID,0,VALID,95.3703,VALID,0,VALID,23.1939,VALID,23,VALID,0.0363281,
2009-02-23, 01:00:04,VALID,997.005,VALID,0,VALID,95.4237,VALID,0,VALID,23.2152,VALID,23,VALID,0.0699219,
2009-02-23, 01:01:04,VALID,996.995,VALID,0,VALID,95.4389,VALID,0,VALID,23.2347,VALID,23,VALID,0.0164062,
2009-02-23, 01:02:04,VALID,996.997,VALID,0,VALID,95.4465,VALID,0,VALID,23.2329,VALID,23,VALID,0.0113281,
2009-02-23, 01:03:04,VALID,996.998,VALID,0,VALID,95.4389,VALID,0,VALID,23.2329,VALID,23,VALID,0.194531,
2009-02-23, 01:04:04,VALID,996.979,VALID,0,VALID,95.4313,VALID,0,VALID,23.2542,VALID,23,VALID,0.254297,
2009-02-23, 01:05:04,VALID,996.986,VALID,0,VALID,95.4313,VALID,0,VALID,23.2524,VALID,23,VALID,0.253125,
2009-02-23, 01:06:04,VALID,996.988,VALID,0,VALID,95.3779,VALID,0,VALID,23.2542,VALID,23,VALID,0.104297,
2009-02-23, 01:07:04,VALID,996.983,VALID,0,VALID,95.3321,VALID,0,VALID,23.2152,VALID,23,VALID,0,
2009-02-23, 01:08:04,VALID,996.967,VALID,0,VALID,95.355,VALID,0,VALID,23.2152,VALID,23,VALID,0.400391,
2009-02-23, 01:09:04,VALID,996.925,VALID,0,VALID,95.4237,VALID,0,VALID,23.2134,VALID,23,VALID,0.485938,
2009-02-23, 01:10:04,VALID,996.907,VALID,0,VALID,95.4618,VALID,0,VALID,23.2542,VALID,23,VALID,0.558984,
2009-02-23, 01:11:04,VALID,996.916,VALID,0,VALID,95.4847,VALID,0,VALID,23.2737,VALID,113,VALID,0.577734,
2009-02-23, 01:12:04,VALID,996.876,VALID,0,VALID,95.4389,VALID,0,VALID,23.2737,VALID,113,VALID,0.526953,
2009-02-23, 01:13:04,VALID,996.901,VALID,0,VALID,95.4389,VALID,0,VALID,23.2737,VALID,113,VALID,0.475,
2009-02-23, 01:14:04,VALID,996.867,VALID,0,VALID,95.4084,VALID,0,VALID,23.2932,VALID,113,VALID,0.388672,
2009-02-23, 01:15:04,VALID,996.855,VALID,0,VALID,95.4313,VALID,0,VALID,23.2737,VALID,113,VALID,0.235547,
2009-02-23, 01:16:04,VALID,996.831,VALID,0,VALID,95.416,VALID,0,VALID,23.2737,VALID,113,VALID,0.0015625,
2009-02-23, 01:17:04,VALID,996.837,VALID,0,VALID,95.3931,VALID,0,VALID,23.2542,VALID,113,VALID,0,
2009-02-23, 01:18:04,VALID,996.793,VALID,0,VALID,95.355,VALID,0,VALID,23.2347,VALID,113,VALID,0,
2009-02-23, 01:19:04,VALID,996.805,VALID,0,VALID,95.355,VALID,0,VALID,23.2152,VALID,113,VALID,0,
2009-02-23, 01:20:04,VALID,996.782,VALID,0,VALID,95.355,VALID,0,VALID,23.2152,VALID,113,VALID,0,
2009-02-23, 01:21:04,VALID,996.777,VALID,0,VALID,95.4008,VALID,0,VALID,23.1957,VALID,113,VALID,0.015625,
2009-02-23, 01:22:04,VALID,996.784,VALID,0,VALID,95.4389,VALID,0,VALID,23.2152,VALID,113,VALID,0.075,
2009-02-23, 01:23:04,VALID,996.787,VALID,0,VALID,95.4771,VALID,0,VALID,23.2152,VALID,113,VALID,0,
2009-02-23, 01:24:04,VALID,996.745,VALID,0,VALID,95.4618,VALID,0,VALID,23.2347,VALID,113,VALID,0,
2009-02-23, 01:25:04,VALID,996.765,VALID,0,VALID,95.4313,VALID,0,VALID,23.2152,VALID,113,VALID,0,
2009-02-23, 01:26:04,VALID,996.752,VALID,0,VALID,95.4389,VALID,0,VALID,23.2347,VALID,113,VALID,0,
2009-02-23, 01:27:04,VALID,996.763,VALID,0,VALID,95.4389,VALID,0,VALID,23.2347,VALID,113,VALID,0.0101562,
2009-02-23, 01:28:04,VALID,996.746,VALID,0,VALID,95.4313,VALID,0,VALID,23.2542,VALID,113,VALID,0.131641,
2009-02-23, 01:29:04,VALID,996.719,VALID,0,VALID,95.4618,VALID,0,VALID,23.2737,VALID,113,VALID,0.219141,
2009-02-23, 01:30:04,VALID,996.723,VALID,0,VALID,95.4465,VALID,0,VALID,23.2542,VALID,113,VALID,0.176172,
2009-02-23, 01:31:04,VALID,996.75,VALID,0,VALID,95.4542,VALID,0,VALID,23.2737,VALID,113,VALID,0,
2009-02-23, 01:32:04,VALID,996.754,VALID,0,VALID,95.4618,VALID,0,VALID,23.2542,VALID,113,VALID,0,
2009-02-23, 01:33:04,VALID,996.753,VALID,0,VALID,95.4465,VALID,0,VALID,23.2542,VALID,113,VALID,0,
2009-02-23, 01:34:04,VALID,996.79,VALID,0,VALID,95.4847,VALID,0,VALID,23.2542,VALID,113,VALID,0.20625,
2009-02-23, 01:35:04,VALID,996.763,VALID,0,VALID,95.4923,VALID,0,VALID,23.2737,VALID,113,VALID,0.31875,
2009-02-23, 01:36:04,VALID,996.764,VALID,0,VALID,95.5152,VALID,0,VALID,23.2932,VALID,113,VALID,0.294922,
2009-02-23, 01:37:04,VALID,996.759,VALID,0,VALID,95.4771,VALID,0,VALID,23.2737,VALID,113,VALID,0.350391,
2009-02-23, 01:38:04,VALID,996.749,VALID,0,VALID,95.4084,VALID,0,VALID,23.2737,VALID,113,VALID,0.374609,
2009-02-23, 01:39:04,VALID,996.727,VALID,0,VALID,95.4237,VALID,0,VALID,23.2542,VALID,113,VALID,0.250391,
2009-02-23, 01:40:04,VALID,996.732,VALID,0,VALID,95.4008,VALID,0,VALID,23.2542,VALID,113,VALID,0.260156,
2009-02-23, 01:41:04,VALID,996.738,VALID,0,VALID,95.4008,VALID,0,VALID,23.2152,VALID,113,VALID,0.246094,
2009-02-23, 01:42:04,VALID,996.694,VALID,0,VALID,95.4084,VALID,0,VALID,23.2169,VALID,113,VALID,0.240625,
2009-02-23, 01:43:04,VALID,996.733,VALID,0,VALID,95.4237,VALID,0,VALID,23.2152,VALID,113,VALID,0.240625,
2009-02-23, 01:44:04,VALID,996.767,VALID,0,VALID,95.4389,VALID,0,VALID,23.2152,VALID,113,VALID,0.280078,
2009-02-23, 01:45:04,VALID,996.765,VALID,0,VALID,95.4542,VALID,0,VALID,23.2152,VALID,113,VALID,0.317187,
2009-02-23, 01:46:04,VALID,996.775,VALID,0,VALID,95.4313,VALID,0,VALID,23.1957,VALID,113,VALID,0.394141,
2009-02-23, 01:47:04,VALID,996.77,VALID,0,VALID,95.4542,VALID,0,VALID,23.2152,VALID,113,VALID,0.321484,
2009-02-23, 01:48:04,VALID,996.75,VALID,0,VALID,95.4389,VALID,0,VALID,23.2152,VALID,113,VALID,0.406641,
2009-02-23, 01:49:04,VALID,996.763,VALID,0,VALID,95.4542,VALID,0,VALID,23.2152,VALID,113,VALID,0.353125,
2009-02-23, 01:50:04,VALID,996.758,VALID,0,VALID,95.4465,VALID,0,VALID,23.2152,VALID,113,VALID,0.312891,
2009-02-23, 01:51:04,VALID,996.769,VALID,0,VALID,95.4618,VALID,0,VALID,23.2152,VALID,113,VALID,0.330859,
2009-02-23, 01:52:04,VALID,996.764,VALID,0,VALID,95.4694,VALID,0,VALID,23.2152,VALID,113,VALID,0.353906,
2009-02-23, 01:53:04,VALID,996.778,VALID,0,VALID,95.4771,VALID,0,VALID,23.2347,VALID,113,VALID,0.204297,
2009-02-23, 01:54:04,VALID,996.761,VALID,0,VALID,95.4771,VALID,0,VALID,23.2347,VALID,113,VALID,0.257813,
2009-02-23, 01:55:04,VALID,996.752,VALID,0,VALID,95.4771,VALID,0,VALID,23.2347,VALID,113,VALID,0.0691406,
2009-02-23, 01:56:04,VALID,996.753,VALID,0,VALID,95.4771,VALID,0,VALID,23.2347,VALID,113,VALID,0.164453,
2009-02-23, 01:57:04,VALID,996.767,VALID,0,VALID,95.4923,VALID,0,VALID,23.2347,VALID,113,VALID,0.0664063,
2009-02-23, 01:58:04,VALID,996.76,VALID,0,VALID,95.4542,VALID,0,VALID,23.2347,VALID,113,VALID,0,
2009-02-23, 01:59:04,VALID,996.738,VALID,0,VALID,95.4618,VALID,0,VALID,23.2152,VALID,113,VALID,0,
2009-02-23, 02:00:04,VALID,996.754,VALID,0,VALID,95.4847,VALID,0,VALID,23.2152,VALID,113,VALID,0.188672,
2009-02-23, 02:01:04,VALID,996.75,VALID,0,VALID,95.5228,VALID,0,VALID,23.2347,VALID,113,VALID,0.35,
2009-02-23, 02:02:04,VALID,996.731,VALID,0,VALID,95.5,VALID,0,VALID,23.2347,VALID,113,VALID,0.423828,
2009-02-23, 02:03:04,VALID,996.736,VALID,0,VALID,95.4694,VALID,0,VALID,23.2347,VALID,113,VALID,0.476172,
2009-02-23, 02:04:04,VALID,996.746,VALID,0,VALID,95.4694,VALID,0,VALID,23.2152,VALID,113,VALID,0.404687,
2009-02-23, 02:05:04,VALID,996.74,VALID,0,VALID,95.4771,VALID,0,VALID,23.2152,VALID,113,VALID,0.307813,
2009-02-23, 02:06:04,VALID,996.723,VALID,0,VALID,95.4542,VALID,0,VALID,23.2152,VALID,113,VALID,0.121875,
2009-02-23, 02:07:04,VALID,996.773,VALID,0,VALID,95.4771,VALID,0,VALID,23.1957,VALID,113,VALID,0.293359,
2009-02-23, 02:08:04,VALID,996.779,VALID,0,VALID,95.4847,VALID,0,VALID,23.2152,VALID,113,VALID,0.369922,
2009-02-23, 02:09:04,VALID,996.819,VALID,0,VALID,95.5228,VALID,0,VALID,23.2152,VALID,113,VALID,0.342969,
2009-02-23, 02:10:04,VALID,996.846,VALID,0,VALID,95.5152,VALID,0,VALID,23.1957,VALID,113,VALID,0.183203,
2009-02-23, 02:11:04,VALID,996.843,VALID,0,VALID,95.5152,VALID,0,VALID,23.2152,VALID,113,VALID,0.0933594,
2009-02-23, 02:12:04,VALID,996.858,VALID,0,VALID,95.5076,VALID,0,VALID,23.2152,VALID,113,VALID,0.00742187,
2009-02-23, 02:13:04,VALID,996.865,VALID,0,VALID,95.5305,VALID,0,VALID,23.2152,VALID,113,VALID,0.0671875,
2009-02-23, 02:14:04,VALID,996.884,VALID,0,VALID,95.5305,VALID,0,VALID,23.2347,VALID,113,VALID,0.417578,
2009-02-23, 02:15:04,VALID,996.872,VALID,0,VALID,95.561,VALID,0,VALID,23.2347,VALID,113,VALID,0.373437,
2009-02-23, 02:16:04,VALID,996.846,VALID,0,VALID,95.5381,VALID,0,VALID,23.2542,VALID,113,VALID,0.192578,
2009-02-23, 02:17:04,VALID,996.883,VALID,0,VALID,95.5152,VALID,0,VALID,23.2542,VALID,113,VALID,0.147266,
2009-02-23, 02:18:04,VALID,996.842,VALID,0,VALID,95.5076,VALID,0,VALID,23.2755,VALID,113,VALID,0.00195313,
2009-02-23, 02:19:04,VALID,996.837,VALID,0,VALID,95.5305,VALID,0,VALID,23.2347,VALID,113,VALID,0.0917969,
2009-02-23, 02:20:04,VALID,996.854,VALID,0,VALID,95.5305,VALID,0,VALID,23.2347,VALID,113,VALID,0.137109,
2009-02-23, 02:21:04,VALID,996.847,VALID,0,VALID,95.5152,VALID,0,VALID,23.2542,VALID,113,VALID,0.385547,
2009-02-23, 02:22:04,VALID,996.868,VALID,0,VALID,95.5305,VALID,0,VALID,23.2542,VALID,106,VALID,0.447656,
2009-02-23, 02:23:04,VALID,996.859,VALID,0,VALID,95.5228,VALID,0,VALID,23.256,VALID,106,VALID,0.525,
2009-02-23, 02:24:04,VALID,996.866,VALID,0,VALID,95.5,VALID,0,VALID,23.256,VALID,106,VALID,0.173047,
2009-02-23, 02:25:04,VALID,996.854,VALID,0,VALID,95.5076,VALID,0,VALID,23.256,VALID,106,VALID,0,
2009-02-23, 02:26:04,VALID,996.844,VALID,0,VALID,95.4694,VALID,0,VALID,23.2152,VALID,106,VALID,0,
2009-02-23, 02:27:04,VALID,996.856,VALID,0,VALID,95.4694,VALID,0,VALID,23.1957,VALID,106,VALID,0,
2009-02-23, 02:28:04,VALID,996.841,VALID,0,VALID,95.4771,VALID,0,VALID,23.1957,VALID,106,VALID,0.234766,
2009-02-23, 02:29:04,VALID,996.848,VALID,0,VALID,95.5,VALID,0,VALID,23.1957,VALID,106,VALID,0.419531,
2009-02-23, 02:30:04,VALID,996.846,VALID,0,VALID,95.5152,VALID,0,VALID,23.2152,VALID,99,VALID,0.528906,
2009-02-23, 02:31:04,VALID,996.844,VALID,0,VALID,95.5,VALID,0,VALID,23.1957,VALID,97,VALID,0.467187,
2009-02-23, 02:32:04,VALID,996.863,VALID,0,VALID,95.4771,VALID,0,VALID,23.1957,VALID,96,VALID,0.291406,
2009-02-23, 02:33:04,VALID,996.854,VALID,0,VALID,95.4923,VALID,0,VALID,23.1957,VALID,63,VALID,0.3875,
2009-02-23, 02:34:04,VALID,996.887,VALID,0,VALID,95.5,VALID,0,VALID,23.1957,VALID,32,VALID,0.507031,
2009-02-23, 02:35:04,VALID,996.9,VALID,0,VALID,95.5228,VALID,0,VALID,23.1957,VALID,32,VALID,0.321484,
2009-02-23, 02:36:04,VALID,996.888,VALID,0,VALID,95.5152,VALID,0,VALID,23.1957,VALID,32,VALID,0.509766,
2009-02-23, 02:37:04,VALID,996.874,VALID,0,VALID,95.5,VALID,0,VALID,23.2152,VALID,80,VALID,0.855859,
2009-02-23, 02:38:04,VALID,996.906,VALID,0,VALID,95.4694,VALID,0,VALID,23.1957,VALID,80,VALID,0.864062,
2009-02-23, 02:39:04,VALID,996.922,VALID,0,VALID,95.4847,VALID,0,VALID,23.1957,VALID,82,VALID,0.859375,
2009-02-23, 02:40:04,VALID,996.975,VALID,0,VALID,95.4694,VALID,0,VALID,23.1957,VALID,81,VALID,0.751953,
2009-02-23, 02:41:04,VALID,996.999,VALID,0,VALID,95.4618,VALID,0,VALID,23.1762,VALID,79,VALID,0.229297,
2009-02-23, 02:42:04,VALID,997.014,VALID,0,VALID,95.4542,VALID,0,VALID,23.1762,VALID,79,VALID,0.0199219,
2009-02-23, 02:43:04,VALID,997.014,VALID,0,VALID,95.4465,VALID,0,VALID,23.1779,VALID,79,VALID,0.235547,
2009-02-23, 02:44:04,VALID,997.012,VALID,0,VALID,95.4618,VALID,0,VALID,23.1974,VALID,79,VALID,0.0578125,
2009-02-23, 02:45:04,VALID,997.016,VALID,0,VALID,95.4847,VALID,0,VALID,23.1957,VALID,79,VALID,0.164844,
2009-02-23, 02:46:04,VALID,997.042,VALID,0,VALID,95.4923,VALID,0,VALID,23.1957,VALID,79,VALID,0.329688,
2009-02-23, 02:47:04,VALID,997.075,VALID,0,VALID,95.4847,VALID,0,VALID,23.1957,VALID,81,VALID,0.616406,
2009-02-23, 02:48:04,VALID,997.076,VALID,0,VALID,95.4771,VALID,0,VALID,23.1957,VALID,90,VALID,0.832812,
2009-02-23, 02:49:04,VALID,997.103,VALID,0,VALID,95.4389,VALID,0,VALID,23.2365,VALID,91,VALID,0.726172,
2009-02-23, 02:50:04,VALID,997.148,VALID,0,VALID,95.4465,VALID,0,VALID,23.2347,VALID,91,VALID,0.660547,
2009-02-23, 02:51:04,VALID,997.186,VALID,0,VALID,95.4008,VALID,0,VALID,23.2152,VALID,82,VALID,0.330859,
2009-02-23, 02:52:04,VALID,997.205,VALID,0,VALID,95.3855,VALID,0,VALID,23.2152,VALID,35,VALID,0.444531,
2009-02-23, 02:53:04,VALID,997.265,VALID,0,VALID,95.4084,VALID,0,VALID,23.1957,VALID,35,VALID,0.307813,
2009-02-23, 02:54:04,VALID,997.264,VALID,0,VALID,95.3931,VALID,0,VALID,23.2152,VALID,35,VALID,0.213281,
2009-02-23, 02:55:04,VALID,997.313,VALID,0,VALID,95.3626,VALID,0,VALID,23.1957,VALID,35,VALID,0.467578,
2009-02-23, 02:56:04,VALID,997.339,VALID,0,VALID,95.3855,VALID,0,VALID,23.2169,VALID,38,VALID,0.740234,
2009-02-23, 02:57:04,VALID,997.333,VALID,0,VALID,95.3474,VALID,0,VALID,23.2365,VALID,62,VALID,0.767187,
2009-02-23, 02:58:04,VALID,997.369,VALID,0,VALID,95.3397,VALID,0,VALID,23.2152,VALID,84,VALID,0.718359,
2009-02-23, 02:59:04,VALID,997.382,VALID,0,VALID,95.3321,VALID,0,VALID,23.2152,VALID,84,VALID,0.680859,
2009-02-23, 03:00:04,VALID,997.382,VALID,0,VALID,95.3092,VALID,0,VALID,23.2542,VALID,84,VALID,0.689062,
2009-02-23, 03:01:04,VALID,997.375,VALID,0,VALID,95.2711,VALID,0,VALID,23.2347,VALID,84,VALID,0.482812,
2009-02-23, 03:02:04,VALID,997.398,VALID,0,VALID,95.2558,VALID,0,VALID,23.2347,VALID,106,VALID,0.514453,
2009-02-23, 03:03:04,VALID,997.41,VALID,0,VALID,95.1948,VALID,0,VALID,23.2347,VALID,76,VALID,0.573438,
2009-02-23, 03:04:04,VALID,997.384,VALID,0,VALID,95.1414,VALID,0,VALID,23.2542,VALID,75,VALID,0.872656,
2009-02-23, 03:05:04,VALID,997.398,VALID,0,VALID,95.1261,VALID,0,VALID,23.2542,VALID,74,VALID,0.91875,
2009-02-23, 03:06:04,VALID,997.415,VALID,0,VALID,95.0803,VALID,0,VALID,23.2329,VALID,75,VALID,0.613672,
2009-02-23, 03:07:04,VALID,997.387,VALID,0,VALID,95.0803,VALID,0,VALID,23.2737,VALID,75,VALID,0.621094,
2009-02-23, 03:08:04,VALID,997.406,VALID,0,VALID,95.0651,VALID,0,VALID,23.2737,VALID,75,VALID,0.426172,
2009-02-23, 03:09:04,VALID,997.373,VALID,0,VALID,95.0651,VALID,0,VALID,23.2737,VALID,103,VALID,0.660937,
2009-02-23, 03:10:04,VALID,997.385,VALID,0,VALID,95.0193,VALID,0,VALID,23.2737,VALID,91,VALID,0.628906,
2009-02-23, 03:11:04,VALID,997.379,VALID,0,VALID,95.0193,VALID,0,VALID,23.2737,VALID,82,VALID,0.624609,
2009-02-23, 03:12:04,VALID,997.371,VALID,0,VALID,95.0269,VALID,0,VALID,23.2932,VALID,83,VALID,0.717188,
2009-02-23, 03:13:04,VALID,997.391,VALID,0,VALID,94.9964,VALID,0,VALID,23.2737,VALID,87,VALID,1.11641,
2009-02-23, 03:14:04,VALID,997.387,VALID,0,VALID,94.9583,VALID,0,VALID,23.2915,VALID,92,VALID,1.07344,
2009-02-23, 03:15:04,VALID,997.409,VALID,0,VALID,94.943,VALID,0,VALID,23.3127,VALID,92,VALID,0.830078,
2009-02-23, 03:16:04,VALID,997.4,VALID,0,VALID,94.9506,VALID,0,VALID,23.2915,VALID,94,VALID,0.830469,
2009-02-23, 03:17:04,VALID,997.371,VALID,0,VALID,94.9811,VALID,0,VALID,23.3323,VALID,97,VALID,0.909375,
2009-02-23, 03:18:04,VALID,997.391,VALID,0,VALID,94.9811,VALID,0,VALID,23.3323,VALID,97,VALID,0.614844,
2009-02-23, 03:19:04,VALID,997.375,VALID,0,VALID,94.9735,VALID,0,VALID,23.3127,VALID,97,VALID,0.407031,
2009-02-23, 03:20:04,VALID,997.382,VALID,0,VALID,94.9506,VALID,0,VALID,23.3127,VALID,95,VALID,0.200781,
2009-02-23, 03:21:04,VALID,997.361,VALID,0,VALID,94.9201,VALID,0,VALID,23.2932,VALID,85,VALID,0.346484,
2009-02-23, 03:22:04,VALID,997.354,VALID,0,VALID,94.9277,VALID,0,VALID,23.2932,VALID,56,VALID,0.348828,
2009-02-23, 03:23:04,VALID,997.347,VALID,0,VALID,94.9354,VALID,0,VALID,23.2737,VALID,45,VALID,0.473047,
2009-02-23, 03:24:04,VALID,997.308,VALID,0,VALID,94.9583,VALID,0,VALID,23.2542,VALID,30,VALID,0.823438,
2009-02-23, 03:25:04,VALID,997.309,VALID,0,VALID,94.9964,VALID,0,VALID,23.2737,VALID,51,VALID,0.7,
2009-02-23, 03:26:04,VALID,997.284,VALID,0,VALID,94.9659,VALID,0,VALID,23.2932,VALID,51,VALID,0.498437,
2009-02-23, 03:27:04,VALID,997.287,VALID,0,VALID,94.9201,VALID,0,VALID,23.3127,VALID,51,VALID,0.446875,
2009-02-23, 03:28:04,VALID,997.278,VALID,0,VALID,94.9125,VALID,0,VALID,23.3127,VALID,52,VALID,0.382422,
2009-02-23, 03:29:04,VALID,997.264,VALID,0,VALID,94.8972,VALID,0,VALID,23.2915,VALID,80,VALID,0.615625,
2009-02-23, 03:30:04,VALID,997.238,VALID,0,VALID,94.8972,VALID,0,VALID,23.311,VALID,80,VALID,0.616797,
2009-02-23, 03:31:04,VALID,997.253,VALID,0,VALID,94.9125,VALID,0,VALID,23.3127,VALID,80,VALID,0.0597656,
2009-02-23, 03:32:04,VALID,997.24,VALID,0,VALID,94.8285,VALID,0,VALID,23.3127,VALID,35,VALID,0.495313,
2009-02-23, 03:33:04,VALID,997.227,VALID,0,VALID,94.8743,VALID,0,VALID,23.2932,VALID,5,VALID,0.426562,
2009-02-23, 03:34:04,VALID,997.249,VALID,0,VALID,94.8667,VALID,0,VALID,23.2915,VALID,5,VALID,0.321484,
2009-02-23, 03:35:04,VALID,997.22,VALID,0,VALID,94.8667,VALID,0,VALID,23.2719,VALID,5,VALID,0,
2009-02-23, 03:36:04,VALID,997.203,VALID,0,VALID,94.8896,VALID,0,VALID,23.2524,VALID,5,VALID,0.034375,
2009-02-23, 03:37:04,VALID,997.185,VALID,0,VALID,94.9354,VALID,0,VALID,23.2524,VALID,5,VALID,0.468359,
2009-02-23, 03:38:04,VALID,997.164,VALID,0,VALID,94.9277,VALID,0,VALID,23.2524,VALID,5,VALID,0.441016,
2009-02-23, 03:39:04,VALID,997.144,VALID,0,VALID,94.9201,VALID,0,VALID,23.2737,VALID,5,VALID,0.587109,
2009-02-23, 03:40:04,VALID,997.137,VALID,0,VALID,94.9048,VALID,0,VALID,23.2329,VALID,18,VALID,0.763672,
2009-02-23, 03:41:04,VALID,997.118,VALID,0,VALID,94.9659,VALID,0,VALID,23.2542,VALID,47,VALID,0.519141,
2009-02-23, 03:42:04,VALID,997.148,VALID,0,VALID,94.9506,VALID,0,VALID,23.2329,VALID,47,VALID,0.144141,
2009-02-23, 03:43:04,VALID,997.123,VALID,0,VALID,94.9277,VALID,0,VALID,23.2347,VALID,47,VALID,0.00585938,
2009-02-23, 03:44:04,VALID,997.134,VALID,0,VALID,94.8972,VALID,0,VALID,23.2152,VALID,47,VALID,0,
2009-02-23, 03:45:04,VALID,997.126,VALID,0,VALID,94.9048,VALID,0,VALID,23.1957,VALID,47,VALID,0,
2009-02-23, 03:46:04,VALID,997.121,VALID,0,VALID,94.943,VALID,0,VALID,23.1957,VALID,47,VALID,0,
2009-02-23, 03:47:04,VALID,997.123,VALID,0,VALID,94.9888,VALID,0,VALID,23.1957,VALID,47,VALID,0.123047,
2009-02-23, 03:48:04,VALID,997.126,VALID,0,VALID,95.0269,VALID,0,VALID,23.1744,VALID,47,VALID,0.485547,